Fort Campbell, KY

11:57 PM CST on February 20, 2018 (GMT -0600)
Campbell Army Air Field

Weather History for KHOP - March, 2014

Change the Weather History Date:

Friday, March 14, 2014

  Actual Average Record
Temperature  
Mean Temperature 54 °F -  
Max Temperature 65 °F 56 °F 83 °F (2012)
Min Temperature 43 °F 35 °F 23 °F (2013)
Degree Days  
Heating Degree Days 12    
Growing Degree Days 4 (Base 50)    
Moisture  
Dew Point 30 °F    
Average Humidity 42    
Maximum Humidity 55    
Minimum Humidity 27    
Precipitation  
Precipitation 0.03 in - - ()
Sea Level Pressure  
Sea Level Pressure 30.05 in    
Wind  
Wind Speed 12 mph (SSW)    
Max Wind Speed 24 mph    
Max Gust Speed 38 mph    
Visibility 10 miles    
Events      
Averages and records for this station are not official NWS values.
T = Trace of Precipitation, MM = Missing Value Source: NWS Daily Summary

Daily Weather History Graph

Daily Weather History Graph

Search for Another Location

Airport or City:

Trip Planner

Search our weather history database for the weather conditions in past years. The results will help you decide how hot, cold, wet, or windy it might be!

Date:

Astronomy

Mar. 14, 2014 Rise Set
Actual Time 7:02 AM CDT 6:56 PM CDT
Civil Twilight 6:36 AM CDT 7:22 PM CDT
Nautical Twilight 6:06 AM CDT 7:52 PM CDT
Astronomical Twilight 5:36 AM CDT 8:22 PM CDT
Moon 5:19 PM CDT (3/14) 5:39 AM CDT (3/14)
Length of Visible Light 12h 45m
Length of Day
11h 54m
Waxing Gibbous, 96% of the Moon is Illuminated
Mar 14
Waxing Gibbous
Mar 16
Full
Mar 23
Last Quarter
Mar 30
New
Apr 7
First Quarter

Hourly Weather History & Observations

Time (CDT) Temp. Windchill Dew Point Humidity Pressure Visibility Wind Dir Wind Speed Gust Speed Precip Events Conditions
12:58 AM 43.9 °F 41.3 °F 26.6 °F 51% 30.12 in 10.0 mi South 4.6 mph - N/A   Clear
1:58 AM 43.3 °F 38.6 °F 26.8 °F 52% 30.12 in 10.0 mi South 8.1 mph - N/A   Clear
2:58 AM 45.3 °F 41.6 °F 27.5 °F 50% 30.11 in 10.0 mi SSW 6.9 mph - N/A   Clear
3:58 AM 45.3 °F 40.1 °F 28.0 °F 51% 30.10 in 10.0 mi SSW 10.4 mph - N/A   Clear
4:58 AM 45.5 °F 39.6 °F 28.0 °F 51% 30.10 in 10.0 mi SSW 12.7 mph - N/A   Clear
5:58 AM 45.3 °F 40.6 °F 27.9 °F 51% 30.10 in 10.0 mi South 9.2 mph - N/A   Clear
6:58 AM 43.5 °F 38.9 °F 27.9 °F 54% 30.11 in 10.0 mi South 8.1 mph - N/A   Clear
7:58 AM 46.6 °F - 28.4 °F 49% 30.11 in 10.0 mi South 10.4 mph - N/A   Clear
8:58 AM 50.9 °F - 29.1 °F 43% 30.11 in 10.0 mi SSW 16.1 mph - N/A   Scattered Clouds
9:58 AM 54.0 °F - 29.5 °F 39% 30.11 in 10.0 mi SSW 19.6 mph 27.6 mph N/A   Partly Cloudy
10:58 AM 58.3 °F - 29.7 °F 34% 30.10 in 10.0 mi SSW 18.4 mph 28.8 mph N/A   Scattered Clouds
11:58 AM 60.4 °F - 28.8 °F 30% 30.05 in 10.0 mi SW 24.2 mph 38.0 mph N/A   Scattered Clouds
12:58 PM 60.6 °F - 29.3 °F 31% 30.03 in 10.0 mi SSW 24.2 mph 33.4 mph N/A   Scattered Clouds
1:58 PM 64.6 °F - 29.3 °F 27% 30.00 in 10.0 mi SW 23.0 mph 36.8 mph N/A   Scattered Clouds
2:58 PM 63.1 °F - 29.7 °F 28% 29.99 in 10.0 mi SW 19.6 mph 31.1 mph N/A   Mostly Cloudy
3:58 PM 62.8 °F - 28.6 °F 27% 29.98 in 10.0 mi WSW 19.6 mph - N/A   Clear
4:58 PM 60.6 °F - 30.6 °F 32% 29.99 in 10.0 mi WSW 23.0 mph 29.9 mph 0.01 in   Clear
5:58 PM 61.0 °F - 28.8 °F 30% 29.97 in 10.0 mi SW 21.9 mph 33.4 mph 0.02 in   Overcast
6:58 PM 57.7 °F - 33.6 °F 40% 29.99 in 10.0 mi SW 18.4 mph - N/A   Mostly Cloudy
7:58 PM 53.6 °F - 33.4 °F 46% 30.00 in 10.0 mi SW 12.7 mph - N/A   Partly Cloudy
8:58 PM 54.5 °F - 33.3 °F 45% 30.01 in 10.0 mi SW 16.1 mph 24.2 mph N/A   Clear
9:58 PM 53.8 °F - 34.5 °F 48% 30.03 in 10.0 mi SW 15.0 mph 25.3 mph N/A   Clear
10:58 PM 52.0 °F - 34.7 °F 52% 30.04 in 10.0 mi SW 12.7 mph - N/A   Clear
11:58 PM 50.7 °F - 35.1 °F 55% 30.04 in 10.0 mi WSW 11.5 mph - N/A   Clear